Weather History for Fort Myers, FL

Change the Weather History Date:

Saturday, March 2, 2013

  Actual Average Record
Temperature  
Mean Temperature 58 °F 68 °F  
Max Temperature 63 °F 79 °F 89 °F (1979)
Min Temperature 53 °F 58 °F 33 °F (1920)
Degree Days  
Heating Degree Days 7 1  
Month to date heating degree days 10 2  
Since 1 July heating degree days 126 262  
Cooling Degree Days 0 5  
Month to date cooling degree days 0 10  
Year to date cooling degree days 311 195  
Growing Degree Days 8 (Base 50)    
Moisture  
Dew Point 40 °F    
Average Humidity 53    
Maximum Humidity 59    
Minimum Humidity 43    
Precipitation  
Precipitation 0.00 in 0.07 in 2.10 in (1965)
Month to date precipitation 0.00 0.15  
Year to date precipitation 2.48 4.24  
Sea Level Pressure  
Sea Level Pressure 30.03 in    
Wind  
Wind Speed 10 mph (North)    
Max Wind Speed 21 mph    
Max Gust Speed 24 mph    
Visibility 10 miles    
Events      
T = Trace of Precipitation, MM = Missing Value Source: NWS Daily Summary

Daily Weather History Graph

Daily Weather History Graph

Search for Another Location

Airport:

Trip Planner

Search our weather history database for the weather conditions in past years. The results will help you decide how hot, cold, wet, or windy it might be!

Date:

Astronomy

Mar. 02, 2013 Rise Set
Actual Time 6:49 AM EST 6:29 PM EST
Civil Twilight 6:26 AM EST 6:52 PM EST
Nautical Twilight 5:59 AM EST 7:19 PM EST
Astronomical Twilight 5:33 AM EST 7:46 PM EST
Moon 11:31 PM EST (3/2) 9:49 AM EST (3/2)
Length of Visible Light 12h 25m
Length of Day
11h 39m
Waning Gibbous, 74% of the Moon is Illuminated
Mar 2
Waning Gibbous
Mar 4
Last Quarter
Mar 11
New
Mar 19
First Quarter
Mar 27
Full

Hourly Weather History & Observations

Time (EST) Temp. Dew Point Humidity Pressure Visibility Wind Dir Wind Speed Gust Speed Precip Events Conditions
12:53 AM 57.0 °F 39.0 °F 51% 30.03 in 10.0 mi NNW 12.7 mph - N/A   Overcast
1:53 AM 57.0 °F 39.9 °F 53% 30.02 in 10.0 mi NNW 13.8 mph - N/A   Overcast
2:53 AM 57.0 °F 39.9 °F 53% 30.01 in 10.0 mi NNW 13.8 mph - N/A   Overcast
3:53 AM 57.0 °F 41.0 °F 55% 30.01 in 10.0 mi North 8.1 mph - N/A   Overcast
4:53 AM 55.9 °F 39.0 °F 53% 30.02 in 10.0 mi North 10.4 mph - N/A   Scattered Clouds
6:53 AM 54.0 °F 37.9 °F 55% 30.04 in 10.0 mi NNE 10.4 mph - N/A   Partly Cloudy
7:53 AM 53.1 °F 39.0 °F 59% 30.04 in 10.0 mi ENE 4.6 mph - N/A   Mostly Cloudy
8:53 AM 54.0 °F 39.0 °F 57% 30.05 in 10.0 mi ENE 4.6 mph - N/A   Scattered Clouds
10:53 AM 55.9 °F 37.9 °F 51% 30.07 in 10.0 mi NNE 11.5 mph - N/A   Overcast
11:53 AM 60.1 °F 39.0 °F 46% 30.06 in 10.0 mi Variable 3.5 mph - N/A   Mostly Cloudy
12:53 PM 61.0 °F 42.1 °F 50% 30.06 in 10.0 mi NNW 18.4 mph 23.0 mph N/A   Mostly Cloudy
1:53 PM 57.9 °F 43.0 °F 58% 30.02 in 10.0 mi NW 13.8 mph - N/A   Partly Cloudy
2:53 PM 60.1 °F 39.0 °F 46% 30.01 in 10.0 mi NNW 16.1 mph 20.7 mph N/A   Partly Cloudy
3:53 PM 59.0 °F 37.0 °F 44% 30.01 in 10.0 mi NW 16.1 mph - N/A   Partly Cloudy
4:53 PM 62.1 °F 39.0 °F 43% 30.01 in 10.0 mi NW 17.3 mph 20.7 mph N/A   Partly Cloudy
5:53 PM 59.0 °F 39.0 °F 48% 30.01 in 10.0 mi NW 11.5 mph - N/A   Scattered Clouds
6:53 PM 57.0 °F 39.9 °F 53% 30.03 in 10.0 mi NNW 9.2 mph - N/A   Scattered Clouds
8:53 PM 55.0 °F 39.9 °F 57% 30.04 in 10.0 mi North 8.1 mph - N/A   Mostly Cloudy
9:53 PM 55.0 °F 39.0 °F 55% 30.05 in 10.0 mi NNE 5.8 mph - N/A   Overcast
10:53 PM 54.0 °F 39.9 °F 59% 30.05 in 10.0 mi ENE 3.5 mph - N/A   Overcast
11:53 PM 53.1 °F 41.0 °F 64% 30.04 in 10.0 mi NNE 4.6 mph - N/A   Overcast